SCP
0 0 0 0 0 0 0 0 0 0 0 0 0 0 0 0 0 0 0 0 0 0 0 0 0 0 0 0 0 0 0 0 0 0 0 0 0 0 0 0 0 0 0 0
0 0 0 0 0 0 0 0 0 0 0 0 0 0 0 0 0 0 0 0 0 0 0 0 1 1 0 0 0 1 0 0 0 0 0 0 0 0 0 0 0 0 0 0
0 0 0 0 0 0 0 0 0 0 0 0 0 0 0 0 0 0 0 0 0 0 0 0 0 0 0 0 0 0 0 0 0 0 0 0 0 0 0 0 0 0 0 0
0 0 0 0 0 0 0 0 0 0 0 0 0 0 0 0 0 0 0 0 0 0 0 0 0 0 0 0 0 0 0 0 0 0 0 0 0 0 0 0 0 0 0 0
0 0 0 0 0 0 0 0 0 0 0 0 0 0 0 0 0 0 0 0 0 0 0 0 0 0 0 0 0 0 0 0 0 0 0 0 0 0 0 0 0 0 0 0
0 0 0 0 0 0 0 0 0 0 0 0 0 0 0 0 0 0 0 0 0 0 0 0 0 0 0 0 0 0 0 0 0 0 0 0 0 0 0 0 0 0 0 0
0 0 0 0 0 0 0 0 0 0 0 0 0 0 0 0 0 0 0 0 0 0 0 0 1 1 0 0 0 0 0 0 0 0 0 0 0 0 0 0 0 0 0 0
0 0 0 0 0 0 0 0 0 0 0 0 0 0 0 0 0 0 0 0 0 0 0 1 1 1 0 0 0 0 0 0 0 0 0 0 0 0 0 0 0 0 0 0
0 0 0 0 0 0 0 0 0 0 0 0 0 0 0 0 0 0 0 0 0 0 0 0 0 0 0 0 0 0 0 0 0 0 0 0 0 0 0 0 0 0 0 0
0 0 0 0 0 0 0 0 0 0 0 0 0 0 0 0 0 0 0 0 0 0 0 0 0 0 0 0 0 0 0 0 0 0 0 0 0 0 0 0 0 0 0 0
0 0 0 0 0 0 0 0 0 0 0 0 0 0 0 0 0 0 0 0 0 0 0 0 0 0 0 0 0 0 0 0 0 0 0 0 0 0 0 0 0 0 0 0
0 0 0 0 0 0 0 0 0 0 0 0 0 0 0 0 0 0 0 0 0 0 0 0 0 0 0 0 0 0 0 0 0 0 0 0 0 0 0 0 0 0 0 0
0 0 0 0 0 0 0 0 0 0 0 0 0 0 0 0 0 0 0 0 0 0 0 0 0 0 0 0 0 0 0 0 0 0 0 0 0 0 0 0 0 0 0 0
0 0 0 0 0 0 0 0 0 0 0 0 0 0 0 0 0 0 0 0 0 0 0 0 0 0 0 0 0 0 0 0 0 0 0 0 0 0 0 0 0 0 0 0
0 0 0 0 0 0 0 0 0 0 0 0 0 0 0 0 0 0 0 0 0 0 0 0 0 0 0 0 0 0 0 0 0 0 0 0 0 0 0 0 0 0 0 0
0 0 0 0 0 0 0 0 0 0 0 0 0 0 0 0 0 0 0 0 0 0 0 0 0 0 0 0 0 0 0 0 0 0 0 0 0 0 0 0 0 0 0 0
0 0 0 0 0 0 0 0 0 0 0 0 0 0 0 0 0 0 0 0 0 0 0 0 0 0 0 0 0 0 0 0 0 0 0 0 0 0 0 0 0 0 0 0
0 0 0 0 0 0 0 0 0 0 0 0 0 0 0 0 0 0 0 0 0 0 0 0 0 0 0 0 0 0 0 0 0 0 0 0 0 0 0 0 0 0 0 0
0 0 0 0 0 0 0 0 0 0 0 0 0 0 0 0 0 0 0 0 0 0 0 0 0 0 0 0 0 0 0 0 0 0 0 0 0 0 0 0 0 0 0 0
0 0 0 0 0 0 0 0 0 0 0 0 0 0 0 0 0 0 0 0 0 0 0 0 0 0 0 0 0 0 0 0 0 0 0 0 0 0 0 0 0 0 0 0
0 0 0 0 0 0 0 0 0 0 0 0 0 0 0 0 0 0 0 0 0 0 0 0 0 0 0 0 0 0 0 0 0 0 0 0 0 0 0 0 0 0 0 0
0 0 0 0 0 0 0 0 0 0 0 0 0 0 0 0 0 0 0 0 0 0 0 0 0 0 0 0 0 0 0 0 0 0 0 0 0 0 0 0 0 0 0 0
0 0 0 0 0 0 0 0 0 0 0 0 0 0 0 0 0 0 0 0 0 0 0 0 0 0 0 0 0 0 0 0 0 0 0 0 0 0 0 0 0 0 0 0
0 0 0 0 0 0 0 0 0 0 0 0 0 0 0 0 0 0 0 0 0 0 0 0 0 0 0 0 0 0 0 0 0 0 0 0 0 0 0 0 0 0 0 0
0 0 0 0 0 0 0 0 0 0 0 0 0 0 0 0 0 0 0 0 0 0 0 0 0 0 0 0 0 0 0 0 0 0 0 0 0 0 0 0 0 0 0 0
0 0 0 0 0 0 0 0 0 0 0 0 0 0 0 0 0 0 0 0 0 0 0 0 0 0 0 0 0 0 0 0 0 0 0 0 0 0 0 0 0 0 0 0
0 0 0 0 0 0 0 0 0 0 0 0 0 0 0 0 0 0 0 0 0 0 0 0 0 0 0 0 0 0 0 0 0 0 0 0 0 0 0 0 0 0 0 0
Wind_Speed
16 17 13 11 10 9 9 10 11 13 13 6 4 8 10 11 13 15 16 15 11 9 8 8 8 7 8 8 8 8 8 9 9 9 9 9 9 10 10 10 11 10 9 9
16 15 10 7 9 9 9 10 12 14 13 6 7 9 11 14 16 19 17 14 12 12 11 10 9 10 9 9 8 8 8 9 9 9 9 9 9 10 10 10 10 9 9 9
13 14 10 6 10 9 10 11 13 15 13 11 12 14 15 16 19 17 14 15 15 15 12 10 10 9 9 9 8 8 9 10 10 9 9 9 10 10 9 9 9 9 8 9
11 12 7 7 7 9 11 12 15 13 12 13 16 17 17 16 14 15 18 18 16 15 14 13 11 11 10 11 10 10 9 10 9 9 10 9 9 9 8 7 7 8 8 9
7 12 4 6 7 9 12 15 11 12 15 19 20 20 17 15 18 19 19 16 14 16 17 14 14 13 11 11 11 11 12 10 10 10 10 10 9 8 7 7 8 9 9 9
8 11 10 7 8 11 14 9 13 17 19 20 22 19 15 19 20 19 18 15 14 16 16 14 13 12 11 14 13 13 12 11 10 9 10 10 9 9 8 7 8 10 10 8
9 11 5 8 13 15 12 12 17 18 19 20 19 18 19 22 20 18 17 17 15 14 12 11 11 10 12 13 13 12 11 11 10 9 9 10 10 9 8 8 9 9 10 8
8 10 6 11 12 11 11 14 16 18 20 20 21 21 22 21 19 18 18 19 18 13 11 10 11 11 12 12 12 12 12 13 12 11 12 12 8 8 7 8 9 9 9 9
6 7 7 8 9 11 13 16 17 19 20 21 22 23 23 21 19 19 18 17 16 15 13 11 11 11 14 13 13 13 13 13 12 13 11 11 10 10 8 7 8 8 7 6
7 8 10 11 13 15 16 17 19 19 21 21 23 23 23 21 19 18 17 17 15 15 16 15 13 14 14 14 13 13 14 13 12 12 12 11 8 8 7 7 7 6 6 4
9 11 12 12 15 17 17 18 19 20 21 21 23 23 22 19 18 17 17 15 15 15 16 17 16 15 16 15 14 15 15 14 13 12 11 9 9 7 8 7 6 5 4 3
8 11 12 15 16 17 18 19 20 21 22 22 22 22 22 20 18 17 18 18 18 18 19 19 18 18 17 16 14 14 13 12 10 9 8 8 8 8 9 10 8 7 5 3
8 11 13 15 16 17 18 20 21 21 22 22 21 21 21 19 18 19 20 20 19 19 19 19 19 19 18 16 14 13 13 11 9 8 8 8 8 7 6 6 7 7 7 7
8 11 14 14 16 17 19 21 21 21 21 21 20 20 20 20 20 20 19 19 19 19 19 19 19 18 16 15 14 14 13 13 11 8 7 7 7 7 6 5 4 4 6 8
10 11 13 14 16 17 18 20 21 20 21 21 20 20 21 20 20 20 19 19 19 19 19 18 18 17 15 14 14 13 11 8 7 6 6 6 6 6 6 6 4 4 4 5
11 12 13 14 16 18 19 20 20 20 20 21 20 20 20 19 19 19 19 18 19 20 19 17 16 15 14 14 13 10 8 10 8 6 5 6 6 6 5 5 4 4 5 6
11 12 13 15 17 18 19 19 19 20 20 20 21 20 20 20 19 19 19 19 18 18 16 14 15 15 14 12 10 7 6 5 7 6 5 4 4 5 4 4 4 4 5 7
9 11 12 14 15 17 18 18 18 19 19 19 20 19 20 19 19 19 19 19 18 16 14 14 15 16 13 10 8 6 4 3 3 3 3 3 3 3 4 4 4 5 6 8
9 11 12 13 14 15 16 17 17 18 17 18 18 19 18 17 17 18 18 18 17 16 16 18 19 15 12 11 10 6 4 3 1 2 2 3 3 4 3 3 4 6 7 8
9 10 12 13 14 14 15 15 16 16 16 17 17 18 18 18 18 18 18 15 12 12 16 18 16 12 11 11 12 6 4 3 2 0 1 2 3 3 3 3 5 6 7 8
9 11 12 13 13 14 14 15 15 16 16 16 17 17 17 17 17 16 15 13 15 16 18 17 11 10 11 12 11 6 4 2 2 1 1 2 2 2 3 3 4 5 7 8
8 9 11 12 13 13 13 13 14 15 15 16 16 16 16 16 17 16 14 11 15 18 15 11 10 14 17 15 7 5 4 3 1 1 1 1 2 2 3 4 5 6 7 7
6 8 9 11 11 12 13 12 14 13 15 16 15 15 15 14 11 12 13 13 14 19 14 11 16 20 20 11 6 4 3 2 1 0 1 2 2 3 4 6 6 7 8 8
6 7 8 9 10 11 11 12 13 11 13 13 13 13 13 12 11 10 10 15 17 18 13 13 18 20 17 8 6 4 2 2 1 1 2 2 3 4 5 7 8 8 8 9
5 7 7 8 9 8 10 11 11 12 13 12 14 14 12 10 10 11 12 15 18 16 13 14 17 18 12 9 8 7 5 3 3 2 2 3 4 5 7 8 8 7 7 7
4 5 5 6 6 6 7 8 9 9 10 11 12 11 11 11 12 11 11 14 18 16 13 11 12 13 11 10 10 9 7 5 4 3 3 4 5 6 6 7 9 7 6 6
5 4 2 4 5 6 7 8 8 9 9 11 11 11 12 12 12 13 14 13 13 13 12 11 11 11 11 11 10 10 9 8 7 5 4 4 4 5 5 6 5 5 6 6
Wind_Direction
313 310 316 318 334 356 2 352 335 334 337 4 359 336 331 324 321 317 313 311 315 317 314 307 301 293 290 285 282 279 275 272 268 265 264 264 265 265 265 265 271 273 277 282
306 308 311 327 17 19 4 349 336 327 327 7 342 331 326 324 322 315 315 323 326 318 311 307 304 300 295 290 284 277 273 274 273 269 268 269 270 269 267 266 267 270 274 283
308 312 311 37 29 10 351 343 337 324 333 348 336 329 325 324 314 315 332 328 318 314 311 305 301 295 290 289 285 282 278 277 276 275 273 270 277 278 277 282 283 282 284 285
304 318 348 72 36 9 344 334 333 339 351 342 328 324 321 311 322 339 328 319 315 311 308 303 300 298 293 292 286 282 280 280 279 278 279 275 274 276 280 283 283 283 281 280
321 334 4 106 44 5 337 321 9 359 338 329 327 318 310 328 337 324 316 315 312 309 305 301 298 295 290 289 290 288 287 283 281 279 279 279 278 275 277 279 279 278 277 271
321 325 336 58 18 346 319 304 18 345 333 329 324 316 320 327 318 314 316 312 306 303 300 297 296 296 292 291 288 285 284 281 278 275 274 275 276 275 274 272 272 273 272 269
335 321 23 28 353 344 326 333 339 329 326 324 321 314 313 316 316 315 311 308 306 302 300 298 297 291 287 287 286 287 288 287 283 277 276 275 269 266 266 267 269 268 271 269
335 322 13 7 351 347 322 322 326 326 324 320 316 313 314 314 314 312 312 311 310 306 303 299 298 297 295 295 299 299 295 290 285 282 280 281 275 273 267 262 264 265 264 264
332 320 343 348 337 337 338 332 328 324 320 319 317 315 315 315 314 314 314 314 313 311 308 308 309 309 307 306 304 299 293 287 284 282 279 276 273 271 268 259 257 261 261 261
315 316 346 345 345 344 339 329 324 322 321 319 316 316 316 316 317 317 318 319 319 318 318 318 317 313 306 302 298 293 289 286 283 280 276 271 265 261 259 257 255 257 260 261
315 349 341 337 342 336 327 326 324 321 320 318 318 317 319 320 321 322 323 324 328 324 318 313 310 305 301 298 294 290 287 283 279 275 271 270 264 254 251 249 246 247 259 238
331 344 327 326 332 329 329 326 324 323 322 322 322 322 324 324 325 327 327 327 322 318 313 310 307 303 299 293 288 284 282 279 275 270 265 261 261 261 242 238 241 230 221 197
336 333 325 323 326 331 326 325 326 325 324 325 327 328 328 329 330 329 325 322 320 316 312 308 304 300 298 295 289 282 277 274 268 264 259 257 252 249 246 232 229 220 201 181
338 334 326 327 329 328 328 328 327 326 327 330 330 332 334 332 329 326 324 321 317 313 308 305 302 300 300 297 291 285 279 271 264 257 252 248 245 241 237 229 215 207 197 187
341 335 326 326 327 330 330 330 329 329 331 333 336 337 335 332 329 325 322 320 317 312 309 308 305 303 302 299 293 286 281 269 258 252 246 240 237 232 228 226 216 206 170 165
329 328 329 331 331 331 332 333 332 332 335 336 338 337 335 331 327 325 324 323 320 316 314 313 311 311 310 305 298 291 281 271 257 250 244 235 228 226 218 207 200 195 180 162
328 331 335 333 332 333 334 333 333 334 336 338 338 337 335 332 329 329 327 324 320 316 315 319 321 321 316 312 309 300 290 278 252 241 236 230 225 218 203 193 190 190 178 161
331 333 334 333 333 333 333 334 335 337 338 338 338 338 336 334 332 328 326 324 323 322 327 330 330 326 325 328 325 309 298 279 250 235 224 214 210 202 186 184 187 177 152 152
333 334 336 339 338 336 334 335 337 337 340 341 342 339 335 333 330 328 326 326 328 331 334 333 328 327 333 343 337 321 316 306 262 220 200 182 190 177 174 178 171 159 150 154
333 338 341 339 339 338 336 337 335 337 343 345 342 338 336 336 333 331 330 328 330 332 329 326 326 329 337 344 336 325 330 332 337 331 172 168 158 150 156 158 153 151 155 158
337 340 341 338 337 337 339 335 335 341 346 347 343 340 338 336 335 335 332 332 334 335 330 322 329 338 340 334 321 324 341 1 13 26 67 97 117 134 148 152 152 153 155 159
339 338 337 335 334 335 334 334 341 345 347 346 343 342 340 339 338 335 334 334 330 332 330 329 340 339 333 326 323 337 354 10 13 44 102 135 157 164 167 169 163 162 163 163
336 335 333 331 332 327 329 339 346 348 348 346 345 345 344 340 338 335 334 333 332 331 331 337 335 333 331 329 329 336 345 346 338 19 140 159 165 165 168 169 165 162 159 157
325 329 325 326 324 323 336 343 346 350 349 347 349 349 346 342 339 338 329 326 333 333 335 336 333 334 333 335 340 346 353 356 24 93 121 131 140 143 144 146 147 150 150 152
314 315 315 325 323 332 338 342 346 351 351 350 350 352 352 348 340 336 335 336 340 340 341 339 338 339 342 347 353 359 8 23 31 50 88 108 121 128 135 139 143 148 151 158
285 290 309 307 317 334 344 345 348 351 351 351 350 352 352 351 346 344 342 342 345 344 346 347 349 349 352 356 2 7 10 16 27 53 92 116 125 129 134 141 149 152 153 151
256 268 281 319 350 1 349 346 350 353 358 355 349 354 355 354 352 349 349 349 349 349 350 352 353 355 357 1 6 9 12 15 21 31 56 90 117 129 138 149 149 143 144 145